Simultaneous Nadir Overpasses (SNOs) Predictions

Prediction of SNOs between GOES-15 and METOP-B Satellite Orbit:

Table of predicted SNOs for the next 14.0 days since TLE Epoch: 3/23/2017
Index Date Time (GOES-15) GOES-15 Lat,Lon METOP-B Lat,Lon Distance(km) Time Diff (sec)
1 03/25/2017 06:35:44 -0.00,-134.98 -0.28,-136.34 154.58 80
2 03/26/2017 06:17:45 -0.01,-135.01 0.83,-131.34 418.68 80
3 03/27/2017 18:36:36 0.00,-135.05 0.18,-135.90 97.29 80
4 03/28/2017 18:13:16 0.01,-135.08 -0.93,-130.91 475.31 80
5 03/30/2017 06:32:17 -0.01,-135.14 -0.11,-135.51 41.97 80
6 04/01/2017 18:30:29 0.00,-135.20 0.01,-135.08 13.54 80
7 04/04/2017 06:31:30 0.00,-135.27 0.13,-134.69 65.87 80
8 04/05/2017 18:50:22 -0.01,-135.29 0.88,-139.25 451.59 80
9 04/06/2017 18:27:02 -0.00,-135.31 -0.24,-134.26 119.69 80




NCC Satellite Simultaneous Nadir Overpasses (SNOs) Prediction Service
